Weather History for CYYG - July, 2013

Change the Weather History Date:

Wednesday, July 24, 2013

  Actual Average Record
Temperature  
Mean Temperature 72 °F -  
Max Temperature 78 °F 72 °F 84 °F (2001)
Min Temperature 65 °F 56 °F 41 °F (2006)
Cooling Degree Days 6    
Growing Degree Days 22 (Base 50)    
Moisture  
Dew Point 68 °F    
Average Humidity 87    
Maximum Humidity 100    
Minimum Humidity 68    
Precipitation  
Precipitation 0.00 in 0.11 in - ()
Sea Level Pressure  
Sea Level Pressure 29.64 in    
Wind  
Wind Speed 11 mph ()    
Max Wind Speed 18 mph    
Max Gust Speed 25 mph    
Visibility 14.2 miles    
Events Rain    
Averages and records for this station are not official NWS values.
T = Trace of Precipitation, MM = Missing Value Source: Averaged Metar Reports

Daily Weather History Graph

Daily Weather History Graph

Search for Another Location

Airport or City:

Trip Planner

Search our weather history database for the weather conditions in past years. The results will help you decide how hot, cold, wet, or windy it might be!

Date:

Astronomy

Jul. 24, 2013 Rise Set
Actual Time 5:45 AM ADT 8:52 PM ADT
Civil Twilight 5:09 AM ADT 9:28 PM ADT
Nautical Twilight 4:22 AM ADT 10:14 PM ADT
Astronomical Twilight 3:25 AM ADT 11:11 PM ADT
Moon 9:42 PM ADT (7/24) 8:11 AM ADT (7/24)
Length of Visible Light 16h 19m
Length of Day
15h 07m
Waning Gibbous, 95% of the Moon is Illuminated
Jul 24
Waning Gibbous
Jul 29
Last Quarter
Aug 6
New
Aug 14
First Quarter
Aug 20
Full

Hourly Weather History & Observations

Time (ADT) Temp. Dew Point Humidity Pressure Visibility Wind Dir Wind Speed Gust Speed Precip Events Conditions
12:00 AM 69.8 °F 68.0 °F 94% 29.55 in 15.0 mi SSE 15.0 mph 21.9 mph N/A Rain Light Rain
12:38 AM 69.8 °F 68.0 °F 94% 29.56 in 15.0 mi South 12.7 mph - N/A   Overcast
1:00 AM 69.8 °F 69.8 °F 100% 29.55 in 15.0 mi South 11.5 mph - N/A   Overcast
2:00 AM 71.6 °F 69.8 °F 94% 29.54 in 15.0 mi SSW 16.1 mph 24.2 mph N/A   Overcast
3:00 AM 69.8 °F 68.0 °F 94% 29.54 in 15.0 mi South 16.1 mph - N/A   Overcast
4:00 AM 69.8 °F 68.0 °F 94% 29.54 in 15.0 mi South 13.8 mph 20.7 mph N/A   Mostly Cloudy
5:00 AM 69.8 °F 68.0 °F 94% 29.53 in 15.0 mi South 12.7 mph - N/A   Mostly Cloudy
5:50 AM 69.8 °F 68.0 °F 94% 29.53 in 15.0 mi South 12.7 mph - N/A   Mostly Cloudy
6:00 AM 69.8 °F 68.0 °F 94% 29.53 in 15.0 mi South 12.7 mph - N/A   Mostly Cloudy
6:41 AM 69.8 °F 68.0 °F 94% 29.55 in 12.0 mi South 13.8 mph - N/A   Overcast
7:00 AM 71.6 °F 68.0 °F 88% 29.55 in 15.0 mi SSW 13.8 mph 20.7 mph N/A   Overcast
8:00 AM 69.8 °F 68.0 °F 94% 29.57 in 6.0 mi WSW 9.2 mph 21.9 mph N/A   Overcast
9:00 AM 68 °F 67 °F 94% 29.59 in 12 mi WSW 11.5 mph - -   Overcast
9:00 AM 68.0 °F 66.2 °F 94% 29.59 in 12.0 mi WSW 11.5 mph - N/A   Overcast
10:00 AM 68.0 °F 66.2 °F 94% 29.60 in 15.0 mi WSW 12.7 mph - N/A   Overcast
10:31 AM 68.0 °F 66.2 °F 94% 29.61 in 10.0 mi SW 12.7 mph - N/A Rain Light Rain
11:00 AM 68.0 °F 66.2 °F 94% 29.63 in 10.0 mi SW 11.5 mph - N/A Rain Light Rain
11:37 AM 69.8 °F 68.0 °F 94% 29.65 in 15.0 mi SW 11.5 mph 19.6 mph N/A   Overcast
12:00 PM 69.8 °F 66.2 °F 88% 29.65 in 15.0 mi WSW 17.3 mph - N/A   Overcast
12:30 PM 73.4 °F 68.0 °F 83% 29.66 in 15.0 mi WSW 15.0 mph 23.0 mph N/A   Mostly Cloudy
1:00 PM 73.4 °F 66.2 °F 78% 29.68 in 15.0 mi WSW 18.4 mph 25.3 mph N/A   Mostly Cloudy
2:00 PM 77.0 °F 68.0 °F 74% 29.68 in 15.0 mi SW 16.1 mph 21.9 mph N/A   Mostly Cloudy
3:00 PM 76 °F 67 °F 68% 29.70 in 15 mi Calm Calm - -   Partly Cloudy
3:00 PM 75.2 °F 68.0 °F 78% 29.70 in 15.0 mi WSW 10.4 mph - N/A   Mostly Cloudy
4:00 PM 75.2 °F 68.0 °F 78% 29.70 in 15.0 mi SW 8.1 mph - N/A   Mostly Cloudy
5:00 PM 77.0 °F 68.0 °F 74% 29.70 in 15.0 mi SSW 12.7 mph - N/A   Mostly Cloudy
6:00 PM 78.8 °F 68.0 °F 69% 29.72 in 15.0 mi SSW 11.5 mph - N/A   Mostly Cloudy
7:00 PM 77.0 °F 68.0 °F 74% 29.73 in 15.0 mi SW 6.9 mph - N/A   Mostly Cloudy
8:00 PM 75.2 °F 68.0 °F 78% 29.75 in 15.0 mi SSE 6.9 mph - N/A   Mostly Cloudy
9:00 PM 73 °F 68 °F 80% 29.78 in 15 mi South 6.9 mph - -   Scattered Clouds
9:00 PM 73.4 °F 68.0 °F 83% 29.77 in 15.0 mi South 8.1 mph - N/A   Mostly Cloudy
10:00 PM 71.6 °F 69.8 °F 94% 29.80 in 15.0 mi SSW 8.1 mph - N/A   Mostly Cloudy
11:00 PM 71.6 °F 68.0 °F 88% 29.83 in 15.0 mi SSW 6.9 mph - N/A   Scattered Clouds